Cheektowaga, NY

6:36 PM EST on February 09, 2016 (GMT -0500)
Buffalo Niagara International

Weather History for KBUF - August, 2013

Change the Weather History Date:

Saturday, August 10, 2013

  Actual Average Record
Temperature  
Mean Temperature 67 °F 70 °F  
Max Temperature 72 °F 79 °F 92 °F (1947)
Min Temperature 61 °F 62 °F 50 °F (1948)
Degree Days  
Heating Degree Days 0 0  
Month to date heating degree days 3 0  
Since 1 June heating degree days 73 73  
Since 1 July heating degree days 9 9  
Cooling Degree Days 2 6  
Month to date cooling degree days 40 60  
Year to date cooling degree days 450 386  
Since 1 June cooling degree days 379 360  
Growing Degree Days 17 (Base 50)    
Moisture  
Dew Point 55 °F    
Average Humidity 64    
Maximum Humidity 87    
Minimum Humidity 40    
Precipitation  
Precipitation 0.00 in 0.11 in 2.40 in (1955)
Month to date precipitation 1.81 1.09  
Year to date precipitation 25.93 22.99  
Snow  
Snow 0.00 in 0.00 in 0.00 in ()
Month to date snowfall 0.0 0.0  
Since 1 June snowfall 0.0 0.0  
Since 1 July snowfall 0.0 0.0  
Snow Depth 0.00 in    
Sea Level Pressure  
Sea Level Pressure 30.05 in    
Wind  
Wind Speed 8 mph (West)    
Max Wind Speed 17 mph    
Max Gust Speed 21 mph    
Visibility 10 miles    
Events      
T = Trace of Precipitation, MM = Missing Value Source: NWS Daily Summary

Daily Weather History Graph

Daily Weather History Graph

Search for Another Location

Airport or City:

Trip Planner

Search our weather history database for the weather conditions in past years. The results will help you decide how hot, cold, wet, or windy it might be!

Date:

Astronomy

Aug. 10, 2013 Rise Set
Actual Time 6:15 AM EDT 8:23 PM EDT
Civil Twilight 5:44 AM EDT 8:54 PM EDT
Nautical Twilight 5:06 AM EDT 9:33 PM EDT
Astronomical Twilight 4:23 AM EDT 10:15 PM EDT
Moon 10:07 AM EDT (8/10) 9:56 PM EDT (8/10)
Length of Visible Light 15h 10m
Length of Day
14h 08m
Waxing Crescent, 14% of the Moon is Illuminated
Aug 10
Waxing Crescent
Aug 14
First Quarter
Aug 20
Full
Aug 28
Last Quarter
Sep 5
New

Hourly Weather History & Observations

Time (EDT) Temp. Dew Point Humidity Pressure Visibility Wind Dir Wind Speed Gust Speed Precip Events Conditions
12:54 AM 66.0 °F 61.0 °F 84% 29.96 in 10.0 mi SSW 9.2 mph - N/A   Scattered Clouds
1:54 AM 66.0 °F 62.1 °F 87% 29.96 in 10.0 mi SSW 9.2 mph - N/A   Scattered Clouds
2:47 AM 69.8 °F 64.4 °F 83% 29.99 in 10.0 mi West 15.0 mph - N/A   Mostly Cloudy
2:54 AM 69.1 °F 62.1 °F 78% 29.99 in 10.0 mi WNW 12.7 mph 20.7 mph N/A   Mostly Cloudy
3:09 AM 68.0 °F 60.8 °F 78% 29.99 in 10.0 mi West 10.4 mph - N/A   Scattered Clouds
3:54 AM 66.0 °F 59.0 °F 78% 29.99 in 10.0 mi WNW 9.2 mph - N/A   Mostly Cloudy
4:54 AM 64.0 °F 57.9 °F 80% 30.01 in 10.0 mi WNW 8.1 mph - N/A   Scattered Clouds
5:54 AM 63.0 °F 57.0 °F 81% 30.02 in 10.0 mi WNW 5.8 mph - N/A   Mostly Cloudy
6:54 AM 62.1 °F 54.0 °F 75% 30.04 in 10.0 mi WSW 4.6 mph - N/A   Scattered Clouds
7:54 AM 64.0 °F 50.0 °F 60% 30.06 in 10.0 mi WNW 5.8 mph - N/A   Mostly Cloudy
8:54 AM 64.9 °F 48.9 °F 56% 30.07 in 10.0 mi NW 6.9 mph - N/A   Mostly Cloudy
9:54 AM 66.0 °F 48.0 °F 52% 30.08 in 10.0 mi West 6.9 mph - N/A   Mostly Cloudy
10:54 AM 68.0 °F 50.0 °F 52% 30.09 in 10.0 mi WNW 9.2 mph - N/A   Mostly Cloudy
11:54 AM 70.0 °F 45.0 °F 41% 30.09 in 10.0 mi WNW 11.5 mph - N/A   Scattered Clouds
12:54 PM 70.0 °F 46.0 °F 42% 30.09 in 10.0 mi West 9.2 mph 18.4 mph N/A   Scattered Clouds
1:54 PM 72.0 °F 48.9 °F 44% 30.09 in 10.0 mi West 12.7 mph - N/A   Scattered Clouds
2:54 PM 72.0 °F 51.1 °F 48% 30.08 in 10.0 mi WNW 10.4 mph - N/A   Scattered Clouds
3:54 PM 70.0 °F 55.0 °F 59% 30.08 in 10.0 mi WSW 9.2 mph - N/A   Mostly Cloudy
4:54 PM 70.0 °F 55.0 °F 59% 30.09 in 10.0 mi SW 10.4 mph - N/A   Mostly Cloudy
5:54 PM 72.0 °F 57.0 °F 59% 30.08 in 10.0 mi WSW 9.2 mph - N/A   Mostly Cloudy
6:54 PM 70.0 °F 55.9 °F 61% 30.07 in 10.0 mi West 9.2 mph - N/A   Mostly Cloudy
7:54 PM 69.1 °F 57.0 °F 65% 30.07 in 10.0 mi West 9.2 mph - N/A   Mostly Cloudy
8:54 PM 69.1 °F 59.0 °F 70% 30.08 in 10.0 mi West 8.1 mph - N/A   Mostly Cloudy
9:54 PM 66.0 °F 59.0 °F 78% 30.09 in 10.0 mi NW 3.5 mph - N/A   Scattered Clouds
10:54 PM 66.0 °F 59.0 °F 78% 30.09 in 10.0 mi WNW 3.5 mph - N/A   Partly Cloudy
11:54 PM 64.0 °F 59.0 °F 84% 30.09 in 10.0 mi Calm Calm - N/A   Clear